This is the latest recevied weather packets stored in our database for station/object WA6ODQ-13. If no packets are shown the sender has not sent any weather packets the latest 10 day(s).
| Time | Temp. | Humidity | Pressure | Rain* | Wind** | Luminosity | Snow |
|---|---|---|---|---|---|---|---|
| 1777859294 | 17.22° C | 65% | 1009.9 hPa | 0 mm | - | 74 W/m² | - |
| 1777858989 | 17.78° C | 65% | 1009.9 hPa | 0 mm | - | 68 W/m² | - |
| 1777858687 | 18.33° C | 63% | 1009.7 hPa | 0 mm | - | 90 W/m² | - |
| 1777858385 | 18.33° C | 63% | 1009.7 hPa | 0 mm | - | 115 W/m² | - |
| 1777858081 | 18.33° C | 63% | 1009.9 hPa | 0 mm | - | 129 W/m² | - |
| 1777857780 | 18.33° C | 64% | 1010 hPa | 0 mm | - | 140 W/m² | - |
| 1777857476 | 17.78° C | 64% | 1009.9 hPa | 0 mm | - | 140 W/m² | - |
| 1777857173 | 17.78° C | 65% | 1009.9 hPa | 0 mm | - | 140 W/m² | - |
| 1777856869 | 17.78° C | 65% | 1009.8 hPa | 0 mm | - | 89 W/m² | - |
| 1777856564 | 17.78° C | 66% | 1010 hPa | 0 mm | - | 86 W/m² | - |
| 1777856261 | 17.78° C | 66% | 1009.9 hPa | 0 mm | - | 93 W/m² | - |
| 1777855958 | 17.78° C | 66% | 1009.8 hPa | 0 mm | - | 103 W/m² | - |
| 1777855656 | 18.33° C | 66% | 1009.8 hPa | 0 mm | - | 132 W/m² | - |
| 1777855353 | 18.89° C | 64% | 1009.7 hPa | 0 mm | - | 147 W/m² | - |
| 1777855049 | 18.33° C | 64% | 1009.9 hPa | 0 mm | - | 160 W/m² | - |
| 1777854746 | 18.33° C | 63% | 1009.9 hPa | 0 mm | - | 141 W/m² | - |
| 1777854443 | 18.89° C | 62% | 1009.8 hPa | 0 mm | - | 181 W/m² | - |
| 1777854140 | 18.89° C | 62% | 1009.8 hPa | 0 mm | - | 167 W/m² | - |
| 1777853838 | 18.89° C | 62% | 1010 hPa | 0 mm | - | 147 W/m² | - |
| 1777853535 | 18.89° C | 61% | 1010 hPa | 0 mm | - | 220 W/m² | - |
| 1777853232 | 18.89° C | 60% | 1009.8 hPa | 0 mm | - | 188 W/m² | - |
| 1777852928 | 18.89° C | 61% | 1009.9 hPa | 0 mm | - | 282 W/m² | - |
| 1777852627 | 19.44° C | 60% | 1009.9 hPa | 0 mm | - | 160 W/m² | - |
| 1777852323 | 19.44° C | 58% | 1009.8 hPa | 0 mm | - | 232 W/m² | - |
| 1777852021 | 20° C | 58% | 1009.8 hPa | 0 mm | - | 340 W/m² | - |
* Rain latest hour (hover to see other rain measurements)
** Current wind speed in m/s (hover to see current wind gust speed)